Stations météo

réclame
Mon MeteoGroup
Perpignan, France (7747): Température de l'air & dewpoint: 17.07.2018 07:00:00 - 23.07.2018 07:00:00 (CEST)Perpignan, France (7747): Température de l'air 5cm: 17.07.2018 07:00:00 - 23.07.2018 07:00:00 (CEST)Perpignan, France (7747): Température de l'air -20cm & Température de l'air -100cm: 17.07.2018 07:00:00 - 23.07.2018 07:00:00 (CEST)Perpignan, France (7747): Vitesse du vent & gusts: 17.07.2018 07:00:00 - 23.07.2018 07:00:00 (CEST)Perpignan, France (7747): Direction du vent: 17.07.2018 07:00:00 - 23.07.2018 07:00:00 (CEST)Perpignan, France (7747): reduced air pressure: 17.07.2018 07:00:00 - 23.07.2018 07:00:00 (CEST)Perpignan, France (7747): visibility: 17.07.2018 07:00:00 - 23.07.2018 07:00:00 (CEST)Perpignan, France (7747): Quantités de précipitations: 17.07.2018 07:00:00 - 23.07.2018 07:00:00 (CEST)
Date & Time tt [°C] td [°C] tt 5cm [°C] tt -20cm [°C] tt -100cm [°C] ff [km/h] ff [knt] fx [km/h] fx [knt] dd ppp [hPa] vv [km] rr [mm]
23.07.2018 07:00:00 21,4 13,6 19,8 28,2 26,9 16 8 31 17 W 1016,8 60 0,0
23.07.2018 06:00:00 22,0 13,4 20,3 28,4 26,9 19 11 32 17 WNW 1016,4 60 0,0
23.07.2018 05:00:00 22,4 13,2 20,9 28,7 27,0 16 9 31 17 WNW 1016,2 60 0,0
23.07.2018 04:00:00 22,3 13,1 21,3 28,9 27,0 22 12 39 21 WNW 1016,2 60 0,0
23.07.2018 03:00:00 23,4 13,0 22,4 29,1 27,0 24 13 44 24 WNW 1016,2 60 0,0
23.07.2018 02:00:00 23,9 13,1 23,2 29,4 27,1 30 16 50 27 NW 1016,4 60 0,0
23.07.2018 01:00:00 24,2 13,1 23,4 29,6 27,0 30 16 46 25 NW 1016,3 60 0,0
23.07.2018 00:00:00 24,6 12,9 23,8 29,9 27,0 30 16 46 25 NW 1016,1 60 0,0
22.07.2018 23:00:00 24,8 12,4 24,0 30,0 27,0 28 15 44 24 NW 1015,9 60 0,0
22.07.2018 22:00:00 25,4 11,9 24,7 30,2 27,0 29 16 45 24 NW 1015,2 60 0,0
22.07.2018 21:00:00 26,0 12,1 25,5 30,2 27,0 25 14 47 26 NW 1014,4 58 0,0
22.07.2018 20:00:00 27,2 11,2 27,8 30,1 27,0 32 17 51 27 NNW 1013,6 50 0,0
22.07.2018 19:00:00 28,2 10,8 30,7 29,8 27,1 29 15 52 28 NW 1013,0 41 0,0
22.07.2018 18:00:00 28,7 10,8 32,0 29,4 27,0 26 14 46 25 NNW 1013,2 43 0,0
22.07.2018 17:00:00 28,7 10,4 34,5 28,9 27,1 27 14 45 25 NW 1013,6 25 0,0
22.07.2018 16:00:00 28,9 10,5 31,6 28,6 27,1 24 13 45 25 NW 1013,7 26 0,0
22.07.2018 15:00:00 27,3 11,7 32,0 28,3 27,1 24 13 40 22 NNW 1014,0 32 0,0
22.07.2018 14:00:00 27,2 12,4 30,3 28,1 27,1 17 9 41 22 NNW 1014,4 38 0,0
22.07.2018 13:00:00 25,3 12,5 28,2 28,0 27,1 21 12 36 19 NW 1015,4 19 0,0
22.07.2018 12:00:00 24,5 13,1 27,3 27,8 27,1 18 10 35 19 NW 1015,4 51 0,0
22.07.2018 11:00:00 24,3 13,2 27,2 27,8 27,1 18 10 36 19 NW 1015,5 37 0,0
22.07.2018 10:00:00 24,0 12,6 27,6 27,8 27,0 22 12 36 19 NW 1015,6 39 0,0
22.07.2018 09:00:00 23,1 13,3 23,2 27,9 27,1 17 9 28 15 WNW 1015,6 56 0,0
22.07.2018 08:00:00 21,8 13,2 20,5 28,1 27,0 8 5 18 10 W 1015,8 60 0,0
22.07.2018 07:00:00 20,7 13,2 19,4 28,3 27,1 10 5 23 12 W 1015,3 60 0,0
22.07.2018 06:00:00 20,9 13,3 19,6 28,5 27,1 13 7 20 11 WNW 1014,9 60 0,0
22.07.2018 05:00:00 20,8 13,7 19,6 28,8 27,1 9 5 18 10 W 1015,2 60 0,0
22.07.2018 04:00:00 21,1 13,5 18,9 29,0 27,1 9 5 15 8 WSW 1015,1 60 0,0
22.07.2018 03:00:00 21,0 13,4 19,0 29,3 27,2 4 2 13 7 W 1015,6 60 0,0
22.07.2018 02:00:00 21,3 13,2 19,8 29,5 27,1 9 5 19 11 NW 1015,9 60 0,0
22.07.2018 01:00:00 21,1 12,8 19,3 29,8 27,1 7 4 16 9 WNW 1016,0 60 0,0
22.07.2018 00:00:00 21,6 13,0 20,5 30,1 27,1 10 5 23 12 NW 1015,8 60 0,0
21.07.2018 23:00:00 22,0 13,1 20,8 30,3 27,1 13 7 24 13 NW 1015,7 60 0,0
21.07.2018 22:00:00 22,4 13,5 21,8 30,5 27,1 15 8 32 17 NW 1015,1 19 0,0
21.07.2018 21:00:00 23,0 13,5 23,1 30,6 27,1 22 12 41 22 NW 1014,6 60 0,0
21.07.2018 20:00:00 23,6 13,2 24,3 30,6 27,1 22 12 46 25 NW 1014,0 52 0,0
21.07.2018 19:00:00 24,6 12,9 26,5 30,6 27,1 32 18 53 29 NW 1014,0 44 0,0
21.07.2018 18:00:00 25,1 13,0 26,6 30,5 27,1 22 12 40 22 NW 1014,2 51 0,0
21.07.2018 17:00:00 24,9 13,1 26,8 30,3 27,1 27 15 42 23 WNW 1014,1 46 0,0
21.07.2018 16:00:00 25,6 13,1 29,6 29,8 27,1 20 11 38 21 NNW 1013,9 59 0,0
21.07.2018 15:00:00 26,5 13,6 32,7 29,3 27,1 23 13 40 22 NNW 1013,8 35 0,0
21.07.2018 14:00:00 26,5 13,6 29,9 28,9 27,1 19 11 34 18 NNW 1014,1 60 0,0
21.07.2018 13:00:00 25,6 13,1 33,1 28,5 27,1 16 9 37 20 NNW 1014,4 60 0,0
21.07.2018 12:00:00 25,2 13,7 32,9 28,4 27,1 21 11 36 19 N 1014,4 60 0,0
21.07.2018 11:00:00 24,0 12,9 29,8 28,4 27,1 17 9 36 19 NNW 1014,4 49 0,0
21.07.2018 10:00:00 22,6 12,5 23,0 28,6 27,1 21 12 39 21 NW 1014,5 28 0,0
21.07.2018 09:00:00 21,0 12,2 20,9 28,9 27,1 21 12 36 20 NW 1014,5 41 0,0
21.07.2018 08:00:00 20,2 12,4 18,2 29,2 27,0 21 11 34 18 NW 1014,1 60 0,0
21.07.2018 07:00:00 19,0 12,3 18,0 29,6 27,1 8 4 51 27 NW 1014,0 60 0,0
21.07.2018 06:00:00 19,2 13,1 18,3 30,1 27,1 26 14 60 33 NW 1013,6 60 0,0
21.07.2018 05:00:00 19,4 13,6 18,3 30,5 27,0 34 18 68 37 NW 1013,5 60 0,0
21.07.2018 04:00:00 19,4 14,2 17,5 30,9 27,1 30 16 63 34 NW 1013,7 60 0,2
21.07.2018 03:00:00 19,3 16,0 17,7 31,3 27,0 31 17 59 32 NW 1014,2 17 0,0
21.07.2018 02:00:00 21,1 17,1 19,5 31,7 27,0 10 5 27 15 NW 1014,4 60 0,0
21.07.2018 01:00:00 20,4 17,8 18,8 32,0 27,0 9 5 51 27 SW 1014,4 60 1,4
21.07.2018 00:00:00 20,6 17,0 18,9 32,3 26,8 33 18 64 35 NW 1014,3 1,5 3,9
20.07.2018 23:00:00 24,2 17,2 24,4 32,5 27,0 26 14 43 23 NW 1012,9 60 0,0
20.07.2018 22:00:00 24,8 17,5 25,0 32,7 27,0 24 13 42 23 WNW 1012,4 60 0,0
20.07.2018 21:00:00 25,3 17,7 25,8 32,8 27,0 23 12 36 19 NW 1011,5 59 0,0
20.07.2018 20:00:00 25,9 18,3 26,9 32,8 27,0 21 12 39 21 NW 1011,6 49 0,0
20.07.2018 19:00:00 27,0 18,0 29,1 32,6 27,0 23 12 35 19 NW 1011,8 41 0,0
20.07.2018 18:00:00 28,1 18,8 31,5 32,4 27,0 25 13 35 19 NW 1011,7 41 0,0
20.07.2018 17:00:00 29,0 18,5 30,6 31,9 26,9 11 6 32 17 ESE 1012,1 60 0,0
20.07.2018 16:00:00 30,8 17,5 35,6 31,4 26,9 18 10 32 17 ESE 1012,2 41 0,0
20.07.2018 15:00:00 31,9 17,4 37,8 30,9 27,0 20 11 33 18 E 1012,2 60 0,0
20.07.2018 14:00:00 32,4 16,7 39,0 30,5 26,9 18 10 32 17 ESE 1012,6 60 0,0
20.07.2018 13:00:00 31,8 17,3 36,0 30,2 26,9 16 9 24 13 ESE 1013,0 60 0,0
20.07.2018 12:00:00 31,2 17,1 42,9 30,0 26,9 7 4 22 12 NNW 1013,1 59 0,0
20.07.2018 11:00:00 30,8 17,5 39,5 29,9 26,9 3 2 13 7 SE 1013,7 60 0,0
20.07.2018 10:00:00 28,5 18,0 33,3 30,0 26,9 5 3 18 10 W 1013,8 53 0,0
20.07.2018 09:00:00 26,7 18,6 26,7 30,1 26,9 13 7 30 16 NW 1014,0 47 0,0
20.07.2018 08:00:00 25,3 18,7 24,4 30,4 26,9 12 6 24 13 NW 1013,8 34 0,0
20.07.2018 07:00:00 24,8 18,5 23,3 30,6 26,9 11 6 32 17 NNW 1013,7 35 0,0
20.07.2018 06:00:00 25,0 18,7 21,0 30,9 26,9 7 4 21 11 NNW 1013,0 39 0,0
20.07.2018 05:00:00 24,3 16,8 21,0 31,2 26,9 4 2 10 5 S 1013,1 60 0,0
20.07.2018 04:00:00 23,6 15,6 20,1 31,5 26,9 3 2 8 5 WNW 1013,0 18 0,0
20.07.2018 03:00:00 23,3 15,4 20,6 31,7 26,9 3 1 9 5 SW 1013,3 60 0,0
20.07.2018 02:00:00 24,2 14,9 21,9 32,0 26,9 8 4 13 7 SSW 1013,6 60 0,0
20.07.2018 01:00:00 24,6 13,5 22,7 32,3 26,9 6 3 14 8 W 1013,8 60 0,0
20.07.2018 00:00:00 24,9 13,8 22,1 32,6 26,9 8 4 13 7 SW 1013,8 60 0,0
19.07.2018 23:00:00 26,7 13,4 24,6 32,8 26,9 6 3 16 9 W 1013,4 60 0,0
19.07.2018 22:00:00 27,9 14,2 25,2 32,9 26,9 6 4 10 6 N 1013,2 60 0,0
19.07.2018 21:00:00 29,2 13,0 28,7 32,9 26,9 8 4 18 10 E 1012,8 60 0,0
19.07.2018 20:00:00 30,5 13,3 31,5 32,8 26,9 13 7 24 13 E 1012,8 60 0,0
19.07.2018 19:00:00 30,9 13,2 33,7 32,4 26,9 18 10 27 14 ESE 1012,9 58 0,0
19.07.2018 18:00:00 32,1 12,8 36,4 32,0 26,8 18 10 27 15 ESE 1013,1 60 0,0
19.07.2018 17:00:00 32,6 12,8 37,7 31,4 26,9 18 10 30 16 ESE 1013,4 60 0,0
19.07.2018 16:00:00 32,7 14,3 40,0 30,8 26,9 19 10 30 16 ESE 1013,8 60 0,0
19.07.2018 15:00:00 33,4 12,9 41,2 30,1 26,9 15 8 29 16 ESE 1014,0 60 0,0
19.07.2018 14:00:00 32,9 13,5 42,4 29,6 26,9 13 7 30 16 ESE 1014,2 60 0,0
19.07.2018 13:00:00 32,6 14,7 42,4 29,2 26,8 14 8 23 13 ESE 1014,7 60 0,0
19.07.2018 12:00:00 31,9 13,2 42,4 29,0 26,9 5 3 19 10 NE 1015,1 60 0,0
19.07.2018 11:00:00 30,4 14,1 37,0 29,0 26,9 8 4 26 14 N 1015,2 60 0,0
19.07.2018 10:00:00 28,0 15,0 31,2 29,0 26,9 9 5 28 15 NNW 1015,3 40 0,0
19.07.2018 09:00:00 25,8 14,6 23,9 29,2 26,9 16 9 24 13 NW 1015,4 60 0,0
19.07.2018 08:00:00 22,3 15,4 20,1 29,5 26,9 6 4 16 9 W 1015,4 51 0,0
19.07.2018 07:00:00 20,6 15,4 17,1 29,8 26,9 13 7 21 12 WNW 1015,0 54 0,0
19.07.2018 06:00:00 19,4 15,5 17,2 30,1 26,9 7 4 16 9 NNW 1014,8 60 0,0
19.07.2018 05:00:00 19,5 16,0 17,8 30,4 26,9 13 7 18 10 WSW 1014,6 60 0,0
19.07.2018 04:00:00 19,8 16,1 17,3 30,7 26,9 8 5 12 6 SW 1014,5 60 0,0
19.07.2018 03:00:00 20,2 16,2 18,2 31,0 26,9 8 4 13 7 W 1014,5 60 0,0
19.07.2018 02:00:00 21,5 16,2 19,0 31,3 26,8 5 3 8 5 WSW 1014,7 60 0,0
19.07.2018 01:00:00 22,2 16,2 21,2 31,5 26,9 3 2 21 11 WSW 1014,9 60 0,0
19.07.2018 00:00:00 23,0 16,3 20,7 31,8 26,8 16 9 28 15 WNW 1015,4 60 0,0
18.07.2018 23:00:00 22,6 16,4 21,7 32,0 26,8 13 7 25 13 W 1017,1 57 0,0
18.07.2018 22:00:00 22,5 15,8 22,7 32,2 26,9 8 4 55 30 WNW 1016,9 60 0,0
18.07.2018 21:00:00 23,4 16,4 23,8 32,3 26,9 32 17 72 39 NNW 1015,3 60 0,0
18.07.2018 20:00:00 26,6 20,2 27,2 32,1 26,8 13 7 19 11 N 1011,7 35 0,0
18.07.2018 19:00:00 28,0 19,8 30,3 31,8 26,8 17 9 29 16 E 1011,8 39 0,0
18.07.2018 18:00:00 27,8 18,2 31,6 31,4 26,9 21 11 31 17 ESE 1012,2 60 0,0
18.07.2018 17:00:00 28,9 15,8 33,9 30,8 26,9 21 12 32 17 ESE 1013,2 60 0,0
18.07.2018 16:00:00 29,3 15,1 36,4 30,3 26,9 19 10 35 19 ESE 1014,0 60 0,0
18.07.2018 15:00:00 29,7 14,7 37,6 29,7 26,9 18 10 32 18 ESE 1014,4 60 0,0
18.07.2018 14:00:00 30,0 13,7 37,6 29,2 26,9 18 10 29 15 ESE 1015,0 60 0,0
18.07.2018 13:00:00 29,5 13,7 38,0 28,8 26,9 16 9 28 15 E 1015,5 60 0,0
18.07.2018 12:00:00 29,2 13,4 36,6 28,5 26,9 16 8 27 14 ESE 1015,8 60 0,0
18.07.2018 11:00:00 29,2 14,6 34,4 28,4 26,9 12 7 22 12 SE 1016,1 60 0,0
18.07.2018 10:00:00 27,8 14,4 32,8 28,5 26,9 8 4 18 10 ENE 1016,3 49 0,0
18.07.2018 09:00:00 25,3 15,0 23,6 28,8 26,9 3 2 8 4 N 1016,3 56 0,0
18.07.2018 08:00:00 22,1 15,7 18,0 29,0 26,9 2 1 7 4 NW 1016,1 60 0,0
18.07.2018 07:00:00 18,9 15,2 16,2 29,3 26,9 5 3 10 6 W 1015,9 58 0,0
18.07.2018 06:00:00 19,1 15,0 16,0 29,6 26,9 6 3 11 6 SW 1015,8 60 0,0
18.07.2018 05:00:00 19,6 15,0 17,9 29,9 26,9 10 5 16 9 WSW 1015,9 60 0,0
18.07.2018 04:00:00 20,1 14,7 17,4 30,1 26,9 9 5 12 7 WSW 1016,2 60 0,0
18.07.2018 03:00:00 21,1 15,0 17,9 30,4 26,9 6 4 18 10 SW 1016,3 60 0,0
18.07.2018 02:00:00 23,1 15,2 21,0 30,7 27,0 12 6 26 14 SW 1016,5 60 0,0
18.07.2018 01:00:00 24,5 15,1 22,1 31,1 27,0 16 9 27 14 NW 1016,5 60 0,0
18.07.2018 00:00:00 23,8 15,3 21,2 31,3 27,0 13 7 24 13 W 1016,9 60 0,0
17.07.2018 23:00:00 24,9 15,2 23,6 31,5 27,0 16 9 26 14 NW 1016,8 60 0,0
17.07.2018 22:00:00 25,4 14,8 23,6 31,6 27,0 11 6 23 13 W 1016,4 60 0,0
17.07.2018 21:00:00 27,9 14,5 27,2 31,6 27,0 16 9 26 14 NW 1015,9 60 0,0
17.07.2018 20:00:00 29,8 13,1 30,9 31,4 27,0 14 8 25 14 NNW 1015,6 59 0,0
17.07.2018 19:00:00 30,9 13,2 34,6 31,1 27,0 15 8 27 15 NNW 1015,5 53 0,0
17.07.2018 18:00:00 31,2 13,0 37,2 30,6 27,0 16 9 35 19 NNW 1016,0 60 0,0
17.07.2018 17:00:00 31,3 13,6 39,0 30,0 27,1 16 9 32 17 NNW 1016,2 60 0,0
17.07.2018 16:00:00 31,3 13,6 41,1 29,2 27,1 16 8 29 15 NNW 1016,5 60 0,0
17.07.2018 15:00:00 30,5 13,3 39,8 28,6 27,1 21 11 39 21 NNW 1016,8 40 0,0
17.07.2018 14:00:00 30,0 12,9 39,3 28,0 27,1 21 11 36 20 NW 1017,3 40 0,0
17.07.2018 13:00:00 29,2 13,0 36,6 27,6 27,1 23 12 47 26 NNW 1017,5 39 0,0
17.07.2018 12:00:00 27,4 13,7 32,6 27,4 27,1 28 15 56 30 NW 1017,8 31 0,0
17.07.2018 11:00:00 26,0 13,5 30,3 27,2 27,1 35 19 58 32 NW 1017,9 28 0,0
17.07.2018 10:00:00 24,7 14,2 27,4 27,3 27,1 35 19 56 30 NW 1018,0 56 0,0
17.07.2018 09:00:00 23,6 14,3 23,3 27,4 27,1 26 14 48 26 NNW 1018,2 56 0,0
17.07.2018 08:00:00 22,5 14,6 21,2 27,6 27,1 21 11 43 23 NW 1018,1 47 0,0
17.07.2018 07:00:00 21,7 14,6 20,7 27,7 27,1 18 10 48 26 NW 1018,1 52 0,0

tt = Température de l'air
td = dewpoint
tt 5cm = Température de l'air 5cm
tt -20cm = Température de l'air -20cm
tt -100cm = Température de l'air -100cm
ff = Vitesse du vent
fx = gusts
dd = Direction du vent
ppp = reduced air pressure
vv = visibility
rr = Quantités de précipitations

stations d'obs. à proximité